User: anonymous   Login
Location: Mississauga
(43.5802°N, 79.6166°W)
Time: 13:41:46
(UTC-04:00)
Language:

Cosmos 1437 Rocket - Orbit

View from above orbital plane
View from above orbital plane
View from above satellite
View from above satellite

Ground track
Ground track

The orbit data is extracted from the following two-line orbital elements,

1 13771U 83003B   17144.22417235 +.00001315 +00000-0 +78220-4 0  9999
2 13771 081.1519 030.2976 0043000 088.7195 271.8955 15.09770909870175
Epoch (UTC): 24 May 2017 05:22:48
Eccentricity: 0.0043000
inclination: 81.1519°
perigee height: 507 km
apogee height: 566 km
right ascension of ascending node: 30.2976°
argument of perigee: 88.7195°
revolutions per day: 15.09770909
mean anomaly at epoch: 271.8955°
orbit number at epoch: 87017

The dashed part of the orbit path shows where the satellite is in the earth's shadow,  

DLR